STARLINK-30280, 57643

Orbit data source: Space-Track

STARLINK-30280, 57643 is a payload satellite owned by SpaceX/Seattle (US) in LEO that was launched on Thu, 17 Aug 2023 UTC via an FALCON 9 launch vehicle from the Air Force Eastern Test Range (AFETR). Payload-class satellites include a variety of spacecraft equipped with specific instruments for various scientific and technological missions. These include communications satellites like Starlink; space stations such as the ISS; scientific satellites like the Hubble; Earth observation satellites from companies like Planet Labs, Umbra, and HawkEye 360; GPS; miniature CubeSats for education and research; and military/defense satellites.

Loading next visibility...
Identifier
57643, 2023-122M
Orbit
LEO
Country
Flag of USUS
Related business
Manufacturer
SpaceX/Seattle
Mission
Operational Commercial Communications
Bus & Motor
STARLINK V2M, Unknown motor
Mass
730 kg wet, ~700 kg dry
Launch date (UTC)
2023-08-17 (2 years ago)
Launch vehicle
FALCON 9
Launch site
Air Force Eastern Test Range (AFETR)
Object type
Payload
Rocket body
Debris
Shape & HBR
Box + 2 Pan, 14.5 m
Radar Cross Section
33.884 m², Large (>1 m²)

Expand to show TLE details & history
Last TLE update: 7 hours ago

TLE from 7 hours ago
0 STARLINK-30280
1 57643U 23122M   25243.49616058  .00000016  00000-0  16275-4 0  9992
2 57643  43.0031  47.9314 0001328 270.3383  89.7307 15.02536014113574
Epoch: 2025-08-31T11:54Z
TLE epoch observation values (Epoch: 2025-08-31T11:54:28.274Z)
Latitude
-0.00001°
Longitude
-110.60169°
Altitude
558.854 km
Speed
7.584 km/s
True Right ascension
03h 11m 43s
True Declination
0° 00' 00"
Sunlit
Object was in daylight at epoch
Visualization orbit readout
Latitude
Unknown
Longitude
Unknown
Altitude
Unknown
Speed
Unknown
Apparent Right ascension
Unknown
Apparent Declination
Unknown
Sunlit
N/A
Visualization observer readout
Local Sidereal Time
10:23:07
Azimuth
Unknown
Elevation
Unknown
Doppler factor
Unknown
Orbital elements
Apogee altitude
561.924 km
Perigee altitude
560.081 km
Semi-major axis
6,939.14 km
Eccentricity
0.00013
Inclination
43.0031°
RAAN
47.9314°
Arg. of periapsis
270.3383°
True anomaly
89.74592°
Mean anomaly
89.7307°
Eccentric anomaly
89.73831°
Mean motion
3.75478 °/min
Orbital period
95.88 mins
BSTAR
0.000016275
Loading maneuver chart data...
Computing Atmospheric mass density...
Loading historical data...
Loading historical data...
Loading historical data...
Loading historical data...
Loading historical data...
Loading historical data...
Loading historical data...

Documentation

Showing up to 5 results
|